[[{"header":{"parameterUnit":"m.s-1","parameterCategory":1,"la1":30.2991,"la2":30.254,"lo1":-89.0895,"lo2":-89.0444,"dy":0.0017,"dx":0.0017,"nx":28,"ny":28,"refTime":"2025-05-26T21:00:00:Z","depth":0,"parameterNumber":2,"parameterNumberName":"U-component_of_WINDS"},"data":[0,0,0,0,0,0,0,0,0,0,0,0,0,0,0,0,0,0,0,0,0,0,0,0,0,0,0,0,0,0,0,0,0,0,0,0,0,0,0,0,0,0,0,0,0,0,0,0,0,0,0,0,0,0,0,0,0,0,-0.1198,-0.1197,0,-0.1157,-0.1157,-0.1156,-0.1142,-0.1142,-0.1142,-0.1142,-0.1101,-0.1099,-0.1098,0,0,0,0,0,0,0,0,0,0,0,0,0,-0.1262,-0.1261,-0.1198,-0.1197,-0.1197,-0.1157,-0.1157,-0.1156,-0.1142,-0.1142,-0.1142,-0.1142,-0.1101,-0.11,-0.1098,0,0,0,0,0,0,0,0,0,0,0,0,0,-0.1229,-0.1261,-0.1198,-0.1185,-0.1183,-0.1158,-0.1157,-0.1156,-0.1142,-0.1142,-0.1142,-0.1142,-0.1102,-0.11,-0.1098,-0.1083,0,0,-0.1092,-0.1092,0,0,0,0,0,0,0,0,-0.1231,-0.1227,-0.1187,-0.1186,-0.1184,-0.1155,-0.1164,-0.1132,-0.1142,-0.1157,-0.1142,-0.1142,-0.1118,-0.1115,-0.1107,-0.1081,-0.1079,-0.1092,-0.1091,-0.109,-0.109,0,0,0,0,0,0,0,-0.1233,-0.1228,-0.1182,-0.1187,-0.1184,-0.1181,-0.1176,-0.1158,-0.1137,-0.1156,-0.1155,-0.115,-0.1118,-0.1109,-0.1106,-0.1078,-0.1092,-0.1091,-0.1089,-0.1089,-0.1037,-0.1036,0,0,0,0,0,0,-0.1238,-0.123,-0.1183,-0.1181,-0.1208,-0.1179,-0.1174,-0.1164,-0.1137,-0.1134,-0.115,-0.115,-0.1112,-0.1108,-0.1105,-0.1085,-0.109,-0.1089,-0.1087,-0.1037,-0.1037,-0.1036,0,0,0,0,0,0,-0.1239,-0.1234,-0.1185,-0.1205,-0.1199,-0.1178,-0.1166,-0.1163,-0.1154,-0.1133,-0.1129,-0.1145,-0.1112,-0.1107,-0.1088,-0.1083,-0.1088,-0.1086,-0.1037,-0.1037,-0.1036,-0.1045,0,0,0,0,0,0,-0.1241,-0.1234,-0.1228,-0.1205,-0.1198,-0.1169,-0.1166,-0.1162,-0.1151,-0.115,-0.1127,-0.1124,-0.1112,-0.1091,-0.1086,-0.108,-0.1085,-0.1038,-0.1037,-0.1037,-0.1045,-0.1044,-0.1044,0,0,0,0,0,-0.1243,-0.1232,-0.1228,-0.1222,-0.119,-0.1169,-0.1164,-0.1151,-0.1151,-0.1145,-0.1131,-0.1125,-0.1084,-0.1089,-0.1084,-0.1077,-0.1038,-0.1037,-0.1037,-0.1045,-0.1044,-0.1044,0,0,0,0,0,0,-0.1256,-0.1229,-0.1224,-0.1205,-0.1189,-0.1166,-0.1158,-0.1151,-0.1135,-0.1135,-0.1119,-0.1114,-0.1096,-0.1085,-0.109,-0.1061,-0.1061,-0.1059,-0.1069,-0.1068,-0.1068,-0.1071,-0.1083,0,0,0,0,0,-0.1256,-0.1241,-0.1219,-0.1204,-0.1196,-0.1179,-0.1169,-0.116,-0.1143,-0.1136,-0.1121,-0.1105,-0.1088,-0.1078,-0.1062,-0.1043,-0.1038,-0.1036,-0.1036,-0.1036,-0.1034,-0.1023,-0.1022,-0.1034,-0.1034,-0.1034,0,0,-0.1257,-0.124,-0.1232,-0.1206,-0.1193,-0.1178,-0.1173,-0.1157,-0.1146,-0.1134,-0.1114,-0.1103,-0.1084,-0.1065,-0.1056,-0.1055,-0.103,-0.1035,-0.1035,-0.1034,-0.1023,-0.1022,-0.1021,-0.1034,-0.1034,-0.1034,0,0,-0.125,-0.1237,-0.1223,-0.1209,-0.1189,-0.1177,-0.1174,-0.1152,-0.1143,-0.1124,-0.1115,-0.1101,-0.1073,-0.106,-0.1049,-0.1037,-0.1031,-0.1033,-0.1031,-0.1021,-0.102,-0.1019,-0.1014,-0.1013,-0.1031,-0.1031,-0.1031,0,-0.1254,-0.123,-0.1216,-0.1201,-0.119,-0.1178,-0.1164,-0.1151,-0.1127,-0.1119,-0.1119,-0.1084,-0.107,-0.1048,-0.1045,-0.1037,-0.1032,-0.1035,-0.1021,-0.102,-0.1019,-0.1015,-0.1013,-0.1032,-0.1032,-0.1032,-0.1032,0,-0.1235,-0.1219,-0.121,-0.1187,-0.1175,-0.116,-0.1144,-0.1133,-0.1125,-0.1113,-0.1094,-0.1077,-0.1057,-0.1051,-0.1043,-0.1027,-0.1027,-0.1024,-0.1024,-0.1019,-0.1014,-0.1012,-0.1032,-0.1032,-0.1032,-0.1032,0,0,-0.1235,-0.1204,-0.1201,-0.119,-0.1166,-0.1154,-0.1139,-0.1119,-0.111,-0.1094,-0.108,-0.1057,-0.1054,-0.1042,-0.1033,-0.1024,-0.1015,-0.1022,-0.1021,-0.102,-0.0996,-0.0998,-0.0996,-0.1011,-0.101,-0.101,-0.0997,0,-0.1225,-0.1197,-0.1184,-0.1161,-0.1146,-0.1135,-0.1121,-0.1106,-0.1094,-0.108,-0.1067,-0.1051,-0.1048,-0.1041,-0.1032,-0.1018,-0.1009,-0.1019,-0.0997,-0.0997,-0.1002,-0.0993,-0.0996,-0.0984,-0.0995,-0.0995,-0.0995,0,-0.1209,-0.1193,-0.1169,-0.1147,-0.114,-0.1128,-0.1109,-0.1095,-0.1077,-0.107,-0.1056,-0.1047,-0.1031,-0.1032,-0.1008,-0.1015,-0.1006,-0.0997,-0.0997,-0.0994,-0.0995,-0.099,-0.098,-0.0979,-0.0992,-0.0992,-0.0992,0,-0.1211,-0.1183,-0.1164,-0.1155,-0.113,-0.1122,-0.1111,-0.1093,-0.1082,-0.1065,-0.1057,-0.1039,-0.1029,-0.1015,-0.1001,-0.1003,-0.0979,-0.0979,-0.0972,-0.0972,-0.0967,-0.0967,-0.0955,-0.0962,-0.0962,-0.0962,-0.0962,0,-0.1201,-0.1186,-0.1165,-0.1153,-0.1137,-0.1122,-0.1106,-0.1094,-0.1079,-0.1065,-0.1054,-0.1042,-0.1024,-0.101,-0.0999,-0.0981,-0.0976,-0.097,-0.0967,-0.097,-0.0971,-0.0963,-0.0963,-0.0961,-0.0962,-0.0962,-0.0962,0,-0.1199,-0.1184,-0.1164,-0.1141,-0.1135,-0.1124,-0.1104,-0.1093,-0.1081,-0.1064,-0.1059,-0.104,-0.1022,-0.1007,-0.0984,-0.0976,-0.0957,-0.0954,-0.0963,-0.0962,-0.0955,-0.0956,-0.0938,-0.0934,-0.0944,-0.0944,-0.0944,0,-0.1194,-0.1182,-0.1158,-0.1148,-0.1137,-0.1121,-0.111,-0.1095,-0.1083,-0.1062,-0.1053,-0.1034,-0.1018,-0.099,-0.0974,-0.0956,-0.0952,-0.0947,-0.0949,-0.0953,-0.0951,-0.0952,-0.0951,-0.0947,-0.0947,-0.0947,-0.0947,0,-0.1185,-0.1178,-0.1162,-0.1143,-0.1129,-0.1114,-0.1098,-0.109,-0.1073,-0.106,-0.1042,-0.1029,-0.1005,-0.0986,-0.0966,-0.0955,-0.0948,-0.0946,-0.0943,-0.0946,-0.0952,-0.0948,-0.0962,-0.0946,-0.0946,-0.0946,-0.0946,-0.0946,-0.1181,-0.117,-0.1151,-0.1133,-0.112,-0.1105,-0.1093,-0.108,-0.1064,-0.1043,-0.1035,-0.1016,-0.0998,-0.097,-0.0959,-0.0944,-0.0943,-0.0939,-0.0938,-0.0937,-0.0937,-0.0955,-0.094,-0.094,-0.094,-0.094,-0.094,0,-0.1171,-0.1158,-0.1142,-0.112,-0.1106,-0.11,-0.1083,-0.1071,-0.1054,-0.1038,-0.1023,-0.1001,-0.0983,-0.0966,-0.0947,-0.0938,-0.0934,-0.0933,-0.0933,-0.0931,-0.0939,-0.0943,-0.0937,-0.0937,-0.0937,-0.0937,-0.0937,-0.0937,-0.1164,-0.1145,-0.1136,-0.111,-0.1098,-0.1079,-0.1069,-0.1055,-0.1042,-0.1018,-0.1003,-0.0992,-0.0976,-0.0955,-0.0938,-0.0934,-0.0927,-0.0927,-0.0921,-0.093,-0.093,-0.0931,-0.0934,-0.0926,-0.0926,-0.0914,-0.0914,-0.0914]},{"header":{"parameterUnit":"m.s-1","parameterCategory":1,"la1":30.2991,"la2":30.254,"lo1":-89.0895,"lo2":-89.0444,"dy":0.0017,"dx":0.0017,"nx":28,"ny":28,"refTime":"2025-05-26T21:00:00:Z","depth":0,"parameterNumber":3,"parameterNumberName":"V-component_of_WINDS"},"data":[0,0,0,0,0,0,0,0,0,0,0,0,0,0,0,0,0,0,0,0,0,0,0,0,0,0,0,0,0,0,0,0,0,0,0,0,0,0,0,0,0,0,0,0,0,0,0,0,0,0,0,0,0,0,0,0,0,0,6.7037,6.7037,0,6.7068,6.7068,6.7068,6.7042,6.7041,6.704,6.7039,6.7065,6.7067,6.7069,0,0,0,0,0,0,0,0,0,0,0,0,0,6.6954,6.6955,6.7037,6.7038,6.7038,6.7068,6.7068,6.7068,6.7042,6.7041,6.704,6.7038,6.7065,6.7067,6.7069,0,0,0,0,0,0,0,0,0,0,0,0,0,6.6987,6.6956,6.7037,6.7029,6.7028,6.7067,6.7068,6.7068,6.7042,6.7041,6.7039,6.7038,6.7064,6.7067,6.7069,6.7117,0,0,6.7077,6.7078,0,0,0,0,0,0,0,0,6.6985,6.699,6.7029,6.7029,6.7029,6.7049,6.7048,6.7085,6.7043,6.7037,6.7039,6.7037,6.7061,6.7064,6.7073,6.7118,6.712,6.7077,6.7079,6.708,6.7081,0,0,0,0,0,0,0,6.6983,6.6989,6.7049,6.703,6.703,6.7022,6.7025,6.7055,6.7057,6.7037,6.7035,6.704,6.7061,6.7071,6.7073,6.712,6.7077,6.7079,6.7081,6.7082,6.7208,6.721,0,0,0,0,0,0,6.6982,6.6987,6.7048,6.705,6.7003,6.7025,6.7028,6.7044,6.7057,6.7058,6.7041,6.7038,6.7067,6.707,6.7074,6.7132,6.708,6.7082,6.7084,6.7206,6.7209,6.7211,0,0,0,0,0,0,6.6981,6.6988,6.7047,6.7018,6.7025,6.7028,6.7046,6.7046,6.7056,6.706,6.706,6.7051,6.7066,6.7071,6.7107,6.7133,6.7083,6.7086,6.7204,6.7207,6.721,6.7249,0,0,0,0,0,0,6.6978,6.6987,6.7006,6.7019,6.7027,6.708,6.7048,6.7048,6.7061,6.7058,6.7069,6.707,6.7065,6.7104,6.711,6.7136,6.7088,6.7202,6.7206,6.7209,6.7245,6.7252,6.7259,0,0,0,0,0,6.6975,6.7014,6.7007,6.7015,6.705,6.7082,6.7086,6.7081,6.7063,6.7081,6.7085,6.7069,6.7129,6.7108,6.7115,6.7141,6.72,6.7205,6.7208,6.7242,6.7251,6.7258,0,0,0,0,0,0,6.7002,6.7016,6.7008,6.7052,6.7067,6.7078,6.7101,6.7091,6.7109,6.7105,6.7097,6.71,6.7139,6.7144,6.7119,6.7189,6.7162,6.7167,6.7185,6.7193,6.72,6.7198,6.709,0,0,0,0,0,6.7013,6.7039,6.7049,6.7087,6.7095,6.7097,6.711,6.7106,6.7119,6.7125,6.713,6.7143,6.7165,6.7179,6.7199,6.7246,6.7248,6.7268,6.7274,6.728,6.7285,6.7311,6.732,6.7224,6.7224,6.7224,0,0,6.7036,6.7047,6.7063,6.7093,6.7104,6.713,6.7102,6.713,6.7149,6.7128,6.7164,6.7169,6.7183,6.7225,6.7244,6.723,6.7312,6.7285,6.729,6.7291,6.7316,6.7325,6.7333,6.7227,6.7226,6.7226,0,0,6.7092,6.7103,6.7137,6.7149,6.7166,6.7167,6.7176,6.7189,6.7192,6.7229,6.7214,6.7236,6.7274,6.7285,6.7295,6.7359,6.7345,6.7365,6.74,6.7426,6.7434,6.744,6.7464,6.7472,6.737,6.737,6.737,0,6.7118,6.7158,6.7155,6.7186,6.72,6.7184,6.7219,6.723,6.7252,6.7262,6.7246,6.7295,6.7303,6.7348,6.7364,6.7373,6.7382,6.7363,6.7433,6.744,6.7446,6.7468,6.7477,6.7373,6.7372,6.7372,6.7372,0,6.719,6.7218,6.7244,6.7269,6.7285,6.7317,6.7319,6.7336,6.733,6.7333,6.7371,6.7381,6.7404,6.7414,6.7408,6.7459,6.7451,6.7435,6.7406,6.7458,6.7478,6.7487,6.7376,6.7375,6.7374,6.7374,0,0,6.7261,6.7286,6.7296,6.7308,6.7327,6.7348,6.738,6.7405,6.742,6.7436,6.7463,6.7497,6.7483,6.7495,6.749,6.7513,6.7564,6.7494,6.7494,6.7507,6.7622,6.7635,6.7645,6.7556,6.7557,6.7558,6.7621,0,6.7318,6.7376,6.7375,6.7428,6.7455,6.7443,6.747,6.7485,6.7489,6.7512,6.7515,6.754,6.7519,6.7527,6.7549,6.7553,6.7587,6.7548,6.758,6.7581,6.7577,6.7655,6.7668,6.7727,6.7629,6.7631,6.7632,0,6.7392,6.7414,6.7471,6.7489,6.75,6.7525,6.7549,6.7571,6.7587,6.7589,6.7604,6.7597,6.7629,6.7601,6.7645,6.7619,6.7632,6.7636,6.7638,6.7641,6.7609,6.766,6.7745,6.7754,6.7644,6.7643,6.7642,0,6.7439,6.7483,6.7523,6.7534,6.7555,6.7574,6.7583,6.7599,6.7614,6.7635,6.7645,6.7668,6.768,6.7698,6.7697,6.7676,6.7742,6.7713,6.7744,6.7744,6.7758,6.7757,6.7847,6.7766,6.7766,6.7766,6.7765,0,6.7503,6.7539,6.7545,6.757,6.761,6.7609,6.7647,6.7655,6.7669,6.7694,6.7684,6.7708,6.7705,6.7729,6.7728,6.7765,6.777,6.7772,6.7772,6.7774,6.7774,6.7782,6.7778,6.7768,6.7767,6.7767,6.7767,0,6.7562,6.7568,6.7612,6.763,6.7636,6.7664,6.7679,6.7702,6.7707,6.7739,6.7747,6.7753,6.7781,6.7782,6.7813,6.7812,6.7858,6.7853,6.7854,6.7853,6.7883,6.7881,6.7981,6.7995,6.7905,6.7906,6.7907,0,6.7603,6.7631,6.7653,6.7671,6.7683,6.771,6.7727,6.7728,6.7746,6.7768,6.7789,6.7816,6.7838,6.7883,6.789,6.7914,6.7909,6.7943,6.7912,6.7914,6.791,6.7909,6.7912,6.7948,6.7949,6.795,6.7951,0,6.7675,6.7677,6.7703,6.7731,6.7753,6.7774,6.7793,6.7808,6.7811,6.7831,6.7861,6.7879,6.7912,6.794,6.7964,6.7972,6.7962,6.7961,6.7969,6.7971,6.7971,6.7973,6.787,6.7958,6.7957,6.7957,6.7957,6.7956,6.7726,6.7751,6.7772,6.7802,6.7817,6.7837,6.7861,6.787,6.7895,6.7924,6.7922,6.7956,6.7973,6.8005,6.8016,6.8041,6.8029,6.8041,6.8044,6.8047,6.8051,6.7967,6.8045,6.8045,6.8045,6.8044,6.8044,0,6.7798,6.7812,6.784,6.7869,6.7893,6.7885,6.7907,6.7927,6.7957,6.7975,6.7998,6.8033,6.806,6.807,6.8096,6.8115,6.8111,6.8122,6.812,6.8123,6.806,6.805,6.8125,6.8125,6.8125,6.8125,6.8125,6.8125,6.7838,6.7881,6.7886,6.7936,6.7949,6.7984,6.7997,6.8015,6.803,6.8071,6.8094,6.8101,6.8116,6.8144,6.8169,6.8171,6.8181,6.8194,6.8194,6.8135,6.8127,6.8119,6.811,6.8196,6.8196,6.8256,6.8256,6.8257]}]]